Location: Caltech
(34.1382°N, 118.1253°W)
Time: 08:50:23
(UTC-07:00)

Oscar 19 - Visible Passes

Search period start: 21 August 2017 00:00
Search period end: 31 August 2017 00:00
Orbit: 774 x 790 km, 98.6° (Epoch: 20 August)

Date Brightness Start Highest point End Pass type
(mag) Time Alt. Az. Time Alt. Az. Time Alt. Az.
21 Aug 12.8 02:21:50 10° NNE 02:23:36 22° NNE 02:23:36 22° NNE visible
22 Aug 13.3 01:50:23 10° NNE 01:51:18 15° NE 01:51:18 15° NE visible
22 Aug 12.7 03:30:14 10° NNW 03:31:51 17° NNW 03:31:51 17° NNW visible
23 Aug 12.7 02:57:41 10° N 02:59:32 22° N 02:59:32 22° N visible
24 Aug 12.9 02:25:40 10° NNE 02:27:14 20° NNE 02:27:14 20° NNE visible
25 Aug 13.4 01:54:09 10° NNE 01:54:55 14° NNE 01:54:55 14° NNE visible
25 Aug 12.9 03:34:13 10° NNW 03:35:28 15° NNW 03:35:28 15° NNW visible
26 Aug 12.8 03:01:34 10° N 03:03:09 19° N 03:03:09 19° N visible
27 Aug 13.0 02:29:30 10° NNE 02:30:51 19° NNE 02:30:51 19° NNE visible
28 Aug 13.4 01:57:55 10° NNE 01:58:33 13° NNE 01:58:33 13° NNE visible
28 Aug 13.0 03:38:12 10° NNW 03:39:06 13° NNW 03:39:06 13° NNW visible
29 Aug 12.9 03:05:28 10° N 03:06:47 17° NNW 03:06:47 17° NNW visible
30 Aug 13.1 02:33:21 10° N 02:34:28 17° N 02:34:28 17° N visible
